Time,TemperatureF,DewpointF,PressureIn,WindDirection,WindDirectionDegrees,WindSpeedMPH,WindSpeedGustMPH,Humidity,HourlyPrecipIn,Conditions,Clouds,dailyrainin,SolarRadiationWatts/m^2,SoftwareType,DateUTC
2013-02-19 00:01:00,48.0,3.0,30.01,SE,141,7.0,10.0,15,-99.99,,,-99.99,0.000000,,2013-02-19 07:01:00,
2013-02-19 00:11:00,46.0,3.0,30.01,ESE,112,5.0,8.0,16,-99.99,,,-99.99,0.000000,,2013-02-19 07:11:00,
2013-02-19 00:22:00,46.0,3.0,30.01,ESE,112,5.0,8.0,16,-99.99,,,-99.99,0.000000,,2013-02-19 07:22:00,
2013-02-19 00:32:00,45.0,3.0,30.01,ESE,112,3.0,6.0,17,-99.99,,,-99.99,0.000000,,2013-02-19 07:32:00,
2013-02-19 00:42:00,46.0,3.0,30.01,SSE,163,4.0,6.0,16,-99.99,,,-99.99,0.000000,,2013-02-19 07:42:00,
2013-02-19 00:52:00,46.0,3.0,30.01,SSE,163,4.0,6.0,16,-99.99,,,-99.99,0.000000,,2013-02-19 07:52:00,
2013-02-19 01:02:00,45.0,3.0,30.01,SSE,163,4.0,6.0,16,-99.99,,,-99.99,0.000000,,2013-02-19 08:02:00,
2013-02-19 01:11:00,44.0,3.0,30.02,SSE,155,6.0,9.0,17,-99.99,,,-99.99,0.000000,,2013-02-19 08:11:00,
2013-02-19 01:21:00,44.0,3.0,30.02,SSE,155,6.0,9.0,17,-99.99,,,-99.99,0.000000,,2013-02-19 08:21:00,
2013-02-19 01:31:00,40.0,2.0,30.02,SSE,151,7.0,9.0,19,-99.99,,,-99.99,0.000000,,2013-02-19 08:31:00,
2013-02-19 01:42:00,42.0,3.0,30.02,South,185,8.0,11.0,19,-99.99,,,-99.99,0.000000,,2013-02-19 08:42:00,
2013-02-19 01:52:00,42.0,3.0,30.02,South,185,8.0,11.0,19,-99.99,,,-99.99,0.000000,,2013-02-19 08:52:00,
2013-02-19 02:01:00,45.0,4.0,30.02,SSW,201,9.0,11.0,17,-99.99,,,-99.99,0.000000,,2013-02-19 09:01:00,
2013-02-19 02:11:00,46.0,4.0,30.02,SSW,197,8.0,10.0,17,-99.99,,,-99.99,0.000000,,2013-02-19 09:11:00,
2013-02-19 02:22:00,46.0,4.0,30.02,SSW,197,8.0,10.0,17,-99.99,,,-99.99,0.000000,,2013-02-19 09:22:00,
2013-02-19 02:32:00,47.0,4.0,30.02,South,190,7.0,9.0,17,-99.99,,,-99.99,0.000000,,2013-02-19 09:32:00,
2013-02-19 02:42:00,46.0,4.0,30.01,South,175,6.0,8.0,17,-99.99,,,-99.99,0.000000,,2013-02-19 09:42:00,
2013-02-19 02:53:00,46.0,4.0,30.01,South,175,6.0,8.0,17,-99.99,,,-99.99,0.000000,,2013-02-19 09:53:00,
2013-02-19 03:01:00,45.0,5.0,30.01,South,184,7.0,11.0,18,-99.99,,,-99.99,0.000000,,2013-02-19 10:01:00,
2013-02-19 03:11:00,46.0,5.0,30.01,SSW,192,9.0,12.0,17,-99.99,,,-99.99,0.000000,,2013-02-19 10:11:00,
2013-02-19 03:21:00,46.0,5.0,30.01,SSW,192,9.0,12.0,17,-99.99,,,-99.99,0.000000,,2013-02-19 10:21:00,
2013-02-19 03:31:00,46.0,5.0,30.00,SSW,198,9.0,12.0,17,-99.99,,,-99.99,0.000000,,2013-02-19 10:31:00,
2013-02-19 03:42:00,46.0,5.0,30.00,SSW,195,9.0,11.0,17,-99.99,,,-99.99,0.000000,,2013-02-19 10:42:00,
2013-02-19 03:52:00,46.0,5.0,30.00,SSW,195,9.0,11.0,17,-99.99,,,-99.99,0.000000,,2013-02-19 10:52:00,
2013-02-19 04:01:00,46.0,5.0,30.00,SSW,195,10.0,12.0,17,-99.99,,,-99.99,0.000000,,2013-02-19 11:01:00,
2013-02-19 04:11:00,46.0,5.0,29.99,SSW,196,10.0,12.0,17,-99.99,,,-99.99,0.000000,,2013-02-19 11:11:00,
2013-02-19 04:22:00,46.0,5.0,29.99,SSW,196,10.0,12.0,17,-99.99,,,-99.99,0.000000,,2013-02-19 11:22:00,
2013-02-19 04:32:00,47.0,5.0,29.99,SSW,192,9.0,11.0,17,-99.99,,,-99.99,0.000000,,2013-02-19 11:32:00,
2013-02-19 04:42:00,45.0,5.0,29.99,South,175,9.0,10.0,18,-99.99,,,-99.99,0.000000,,2013-02-19 11:42:00,
2013-02-19 04:52:00,45.0,5.0,29.99,South,175,9.0,10.0,18,-99.99,,,-99.99,0.000000,,2013-02-19 11:52:00,
2013-02-19 05:01:00,42.0,4.0,29.99,SE,143,6.0,9.0,20,-99.99,,,-99.99,0.000000,,2013-02-19 12:01:00,
2013-02-19 05:12:00,38.0,3.0,29.99,East,80,2.0,6.0,22,-99.99,,,-99.99,0.000000,,2013-02-19 12:12:00,
2013-02-19 05:22:00,38.0,3.0,29.99,East,80,2.0,6.0,22,-99.99,,,-99.99,0.000000,,2013-02-19 12:22:00,
2013-02-19 05:32:00,34.0,2.0,29.99,NE,54,2.0,4.0,24,-99.99,,,-99.99,0.000000,,2013-02-19 12:32:00,
2013-02-19 05:42:00,30.0,0.0,29.99,North,352,1.0,3.0,27,-99.99,,,-99.99,0.000000,,2013-02-19 12:42:00,
2013-02-19 05:52:00,30.0,0.0,29.99,North,352,1.0,3.0,27,-99.99,,,-99.99,0.000000,,2013-02-19 12:52:00,
2013-02-19 06:02:00,30.0,0.0,29.99,North,352,1.0,3.0,27,-99.99,,,-99.99,0.000000,,2013-02-19 13:02:00,
2013-02-19 06:11:00,29.0,0.0,29.99,NNW,337,4.0,6.0,27,-99.99,,,-99.99,0.000000,,2013-02-19 13:11:00,
2013-02-19 06:22:00,29.0,0.0,29.99,NNW,337,4.0,6.0,27,-99.99,,,-99.99,0.000000,,2013-02-19 13:22:00,
2013-02-19 06:42:00,30.0,0.0,29.99,NNW,341,6.0,7.0,27,-99.99,,,-99.99,0.000000,,2013-02-19 13:42:00,
2013-02-19 06:52:00,30.0,0.0,29.99,NNW,341,6.0,7.0,27,-99.99,,,-99.99,0.000000,,2013-02-19 13:52:00,
2013-02-19 07:01:00,31.0,1.0,29.99,North,357,5.0,6.0,27,-99.99,,,-99.99,0.000000,,2013-02-19 14:01:00,
2013-02-19 07:11:00,32.0,2.0,29.99,NNE,22,2.0,4.0,27,-99.99,,,-99.99,1.390000,,2013-02-19 14:11:00,
2013-02-19 07:21:00,32.0,2.0,29.99,NNE,22,2.0,4.0,27,-99.99,,,-99.99,1.390000,,2013-02-19 14:21:00,
2013-02-19 07:32:00,33.0,1.0,30.00,North,349,3.0,4.0,25,-99.99,,,-99.99,13.950000,,2013-02-19 14:32:00,
2013-02-19 07:42:00,33.0,2.0,30.00,North,4,1.0,4.0,25,-99.99,,,-99.99,55.090000,,2013-02-19 14:42:00,
2013-02-19 07:52:00,33.0,2.0,30.00,North,4,1.0,4.0,25,-99.99,,,-99.99,55.090000,,2013-02-19 14:52:00,
2013-02-19 08:01:00,33.0,2.0,30.01,NNE,14,3.0,4.0,25,-99.99,,,-99.99,117.150002,,2013-02-19 15:01:00,
2013-02-19 08:11:00,34.0,2.0,30.01,North,350,4.0,5.0,25,-99.99,,,-99.99,171.539993,,2013-02-19 15:11:00,
2013-02-19 08:21:00,34.0,2.0,30.01,North,350,4.0,5.0,25,-99.99,,,-99.99,171.539993,,2013-02-19 15:21:00,
2013-02-19 08:32:00,38.0,5.0,30.03,NW,320,3.0,4.0,24,-99.99,,,-99.99,223.839996,,2013-02-19 15:32:00,
2013-02-19 08:42:00,42.0,6.0,30.03,NW,323,2.0,3.0,22,-99.99,,,-99.99,265.679993,,2013-02-19 15:42:00,
2013-02-19 08:52:00,42.0,6.0,30.03,NW,323,2.0,3.0,22,-99.99,,,-99.99,265.679993,,2013-02-19 15:52:00,
2013-02-19 09:02:00,45.0,10.0,30.02,NE,45,0.0,3.0,23,-99.99,,,-99.99,327.049988,,2013-02-19 16:02:00,
2013-02-19 09:11:00,47.0,11.0,30.02,SSE,157,1.0,3.0,22,-99.99,,,-99.99,398.869995,,2013-02-19 16:11:00,
2013-02-19 09:22:00,47.0,11.0,30.02,SSE,157,1.0,3.0,22,-99.99,,,-99.99,398.869995,,2013-02-19 16:22:00,
2013-02-19 09:32:00,47.0,11.0,30.02,SSE,157,1.0,3.0,22,-99.99,,,-99.99,398.869995,,2013-02-19 16:32:00,
2013-02-19 09:41:00,51.0,11.0,30.02,SSE,165,1.0,4.0,19,-99.99,,,-99.99,507.660004,,2013-02-19 16:41:00,
2013-02-19 09:52:00,51.0,11.0,30.02,SSE,165,1.0,4.0,19,-99.99,,,-99.99,507.660004,,2013-02-19 16:52:00,
2013-02-19 10:01:00,52.0,11.0,30.02,SSE,156,4.0,7.0,19,-99.99,,,-99.99,562.049988,,2013-02-19 17:01:00,
2013-02-19 10:11:00,53.0,11.0,30.01,SSE,160,8.0,12.0,17,-99.99,,,-99.99,546.710022,,2013-02-19 17:11:00,
2013-02-19 10:21:00,53.0,11.0,30.01,SSE,160,8.0,12.0,17,-99.99,,,-99.99,546.710022,,2013-02-19 17:21:00,
2013-02-19 10:32:00,54.0,11.0,30.01,SSE,152,7.0,11.0,17,-99.99,,,-99.99,544.619995,,2013-02-19 17:32:00,
2013-02-19 10:42:00,55.0,10.0,30.00,SSE,152,5.0,8.0,16,-99.99,,,-99.99,503.470001,,2013-02-19 17:42:00,
2013-02-19 10:52:00,55.0,10.0,30.00,SSE,152,5.0,8.0,16,-99.99,,,-99.99,503.470001,,2013-02-19 17:52:00,
2013-02-19 11:01:00,56.0,10.0,30.00,SSE,166,4.0,9.0,15,-99.99,,,-99.99,502.779999,,2013-02-19 18:01:00,
2013-02-19 11:11:00,56.0,9.0,30.00,SSE,168,6.0,11.0,15,-99.99,,,-99.99,414.220001,,2013-02-19 18:11:00,
2013-02-19 11:21:00,56.0,9.0,30.00,SSE,168,6.0,11.0,15,-99.99,,,-99.99,414.220001,,2013-02-19 18:21:00,
2013-02-19 11:31:00,56.0,8.0,29.99,SSE,168,9.0,15.0,14,-99.99,,,-99.99,347.970001,,2013-02-19 18:31:00,
2013-02-19 11:42:00,57.0,8.0,29.98,South,174,10.0,16.0,13,-99.99,,,-99.99,446.989990,,2013-02-19 18:42:00,
2013-02-19 11:52:00,57.0,8.0,29.98,South,174,10.0,16.0,13,-99.99,,,-99.99,446.989990,,2013-02-19 18:52:00,
2013-02-19 12:00:00,59.0,9.0,29.95,SSE,162,13.0,19.0,13,-99.99,,,-99.99,309.619995,,2013-02-19 19:00:00,
2013-02-19 12:01:00,57.0,8.0,29.98,SSE,162,10.0,17.0,13,-99.99,,,-99.99,308.220001,,2013-02-19 19:01:00,
2013-02-19 12:11:00,58.0,8.0,29.96,SSE,162,11.0,18.0,13,-99.99,,,-99.99,345.880005,,2013-02-19 19:11:00,
2013-02-19 12:21:00,58.0,8.0,29.96,SSE,162,11.0,18.0,13,-99.99,,,-99.99,345.880005,,2013-02-19 19:21:00,
2013-02-19 12:31:00,59.0,9.0,29.95,SSE,162,13.0,19.0,13,-99.99,,,-99.99,309.619995,,2013-02-19 19:31:00,
2013-02-19 12:41:00,59.0,9.0,29.95,SSE,162,13.0,19.0,13,-99.99,,,-99.99,309.619995,,2013-02-19 19:41:00,
2013-02-19 12:52:00,59.0,9.0,29.95,SSE,162,13.0,19.0,13,-99.99,,,-99.99,309.619995,,2013-02-19 19:52:00,